ARIANE 5 DEB (SYLDA), 42817

Orbit data source: Space-Track

ARIANE 5 DEB (SYLDA), 42817 is space debris in HEO originally from a launch on Wed, 28 Jun 2017 UTC launched from the French Guiana (FRGUI). Debris objects in space refer to the collection of defunct objects orbiting the Earth. Examples of debris include non-operational satellites, rocket bodies, and fragments generated from explosions, collisions, or faulty payload assembly.

Loading next visibility...
ARIANE 5 DEB (SYLDA) details
Identifier
42817, 2017-040D
Orbit
HEO
Last TLE update14 hours ago
Origin
Flag of FRArianespace (FR)
ManufacturerADS/Bremen
MissionSpacecraft
Bus & MotorSYLDA 5, Unknown motor
Mass440 kg wet, 440 kg dry
Launch date (UTC)
2017-06-28 (7 years ago)
Launch vehicleUnknown
Launch site
French Guiana (FRGUI)
Object type
Payload
Rocket body
Debris
Shape & HBRCyl, 5.5 m
Radar Cross Section27.391 m², Large (>1 m²)

Expand to show TLE details & history

TLE from 14 hours ago
0 ARIANE 5 DEB (SYLDA)
1 42817U 17040D   24361.24540565  .00011111  00000-0  46778-2 0  9990
2 42817   2.8027 138.5804 5819401  15.8068 356.4883  4.26424623 86978
Epoch: 2024-12-26T05:53Z
Definitive object data (Epoch: 2024-12-26T05:53:23.048Z)
Latitude-0.00001°
Longitude-45.11798°
Altitude437.333 km
Speed9.599 km/s
True Right ascension09h 13m 49s
True Declination0° 00' 00"
Sunlit
Object was in full shadow at TLE epoch
Visualization TLE readout
Latitude-0.59536°
Longitude146.65509°
Altitude18,908.758 km
Speed2.591 km/s
Apparent Right ascension22h 35m 44s
Apparent Declination-11° 10' 26"
Sunlit
Object is in daylight
Visualization observer readout
Local Sidereal Time19:10:14
Azimuth125.247° SE
Elevation20.204°
Doppler factor1
Orbital elements
Apogee altitude19,041.419 km
Perigee altitude339.499 km
Semi-major axis16,068.596 km
Eccentricity0.5819401
Inclination2.8027°
RAAN138.5804°
Arg. of periapsis15.8068°
True anomaly343.8196°
Mean anomaly356.4883°
Eccentric anomaly351.64124°
Mean motion1.06556 °/min
BSTAR0.0046778
Orbital period337.85 mins
Loading maneuver chart data...
Loading historical data...
Loading historical data...
Loading historical data...
Loading historical data...
Loading historical data...
Loading historical data...
Loading historical data...
Other satellites on launch #40 in the year 2017 (2017-06-28 UTC)

ARIANE 5 DEB (SYLDA) Visibility forecast

Observer location: undefined°, undefined

Span
Click to sort rows by Start time (UTC) header in descending order
Start Az.
Max El. time (UTC)
Max El. Az.
Max El.
End time (UTC)
End Az.
80 mins2024-12-26 19:47:31.331Z125.271° SE2024-12-26 19:47:31.331Z125.271° SE19.04°2024-12-26 21:07:31.331Z117.732° SE
226 mins2024-12-27 00:14:31.331Z244.71° WSW2024-12-27 03:18:31.331Z211.83° SW22.617°2024-12-27 04:00:31.331Z162.96° S
60 mins2024-12-27 16:03:31.331Z175.524° S2024-12-27 16:14:31.331Z147.07° SSE16.408°2024-12-27 17:03:31.331Z115.398° SE
|